ナンディ の空港の天気 - METARとTAF

ナンディ国際空港 ( NFFN / NAN ) - フィジー ナンディ (ビティレブ島)
飛行場実況気象(Metar)
観測時間05/28 12:00 FJT (05/28 00:00 UTC)
風向・風速西 4m/s
視程10km以上
天気現象
少しの雲 雲底高度 910m
気温29℃
湿度62%
気圧1015hPa
METARNFFN 280000Z 28008KT 9999 FEW030 29/21 Q1015 NOSIG
過去の天気等 Google飛行場航空写真 Wunderground天気予報

過去48時間のMETAR

飛行場予報(TAF)
発表時間: 5/28 11:22 FJT (5/27 23:22 UTC)
予報対象時間: 28日12時 FJT ~ 29日12時 FJT
風向・風速西北西 5m/s
視程10km以上
少しの雲 雲底高度 910m
28日16時 FJT ~ 28日18時 FJT に徐々に
風向・風速東南東 3m/s
29日10時 FJT ~ 29日12時 FJT に徐々に
風向・風速西北西 5m/s
TAF NFFN 272322Z 2800/2824 29010KT 9999 FEW030
BECMG 2804/2806 12006KT
BECMG 2822/2824 30010KT